User: anonymous   Login
Location: Chateh
(58.6667°N, 118.6000°W)
Time: 22:14:07
(UTC+00:00)
Language:

CENTISPACE-1 S5 - Orbit

View from above orbital plane
View from above orbital plane
View from above satellite
View from above satellite

Ground track
Ground track

The orbit data is extracted from the following two-line orbital elements,

1 54020U 22126A   24148.54838807  .00001384  00000-0  32687-3 0  9991
2 54020  54.9997 330.3387 0013469 172.1732 187.9473 14.59639982 87278
Epoch (UTC): 27 May 2024 13:09:40
Eccentricity: 0.0013469
inclination: 54.9997°
perigee height: 685 km
apogee height: 704 km
right ascension of ascending node: 330.3387°
argument of perigee: 172.1732°
revolutions per day: 14.59639982
mean anomaly at epoch: 187.9473°
orbit number at epoch: 8727

The dashed part of the orbit path shows where the satellite is in the earth's shadow,  

DLR